EW7287 Weather Reports


time (UTC)temp
C
wind
direction
speed
KPH
gust
KPH
rain 1hr
cm
rain 24hr
cm
rain mn
cm
humidity
%
barometer
mb
20260505093054 15 244 8.0 16.1 0.00 0.00 0.00 65 1011.4
20260505091552 15 231 11.3 24.1 0.00 0.00 0.00 64 1011.3
20260505084553 15 229 8.0 17.7 0.00 0.00 0.00 64 1011.3
20260505083056 15 235 6.4 17.7 0.00 0.00 0.00 63 1011.4
20260505081547 16 213 9.7 14.5 0.00 0.00 0.00 63 1011.4
20260505080044 16 205 6.4 14.5 0.00 0.00 0.00 63 1011.3
20260505074542 16 182 6.4 11.3 0.00 0.00 0.00 63 1011.2
20260505073041 16 213 6.4 11.3 0.00 0.00 0.00 62 1011.2
20260505071539 16 200 4.8 9.7 0.00 0.00 0.00 61 1011.0
20260505070044 16 211 6.4 12.9 0.00 0.00 0.00 61 1011.0
20260505064537 16 229 6.4 12.9 0.00 0.00 0.00 61 1011.1
20260505063040 16 221 3.2 11.3 0.00 0.00 0.00 61 1011.1
20260505061539 17 198 4.8 9.7 0.00 0.00 0.00 60 1011.1
20260505060034 17 215 4.8 11.3 0.00 0.00 0.00 60 1011.2
20260505054537 17 229 6.4 14.5 0.00 0.00 0.00 59 1011.2
20260505053040 17 225 8.0 19.3 0.00 0.00 0.00 58 1011.3
20260505051529 17 228 9.7 14.5 0.00 0.00 0.00 58 1011.4
20260505041522 17 215 6.4 12.9 0.00 0.00 0.00 57 1011.1
20260505040019 17 217 8.0 12.9 0.00 0.00 0.00 57 1011.1
20260505034519 17 205 4.8 11.3 0.00 0.00 0.00 57 1011.1
20260505033021 16 192 3.2 6.4 0.00 0.00 0.00 57 1011.2
20260505031517 16 190 3.2 6.4 0.00 0.00 0.00 56 1011.1
20260505030025 16 190 1.6 6.4 0.00 0.00 0.00 55 1011.2
20260505024516 17 140 1.6 4.8 0.00 0.00 0.00 56 1011.3
20260505023016 17 140 0.0 4.8 0.00 0.00 0.00 55 1011.3
20260505021515 17 140 1.6 6.4 0.00 0.00 0.00 53 1011.1
20260505020014 17 135 0.0 0.0 0.00 0.00 0.00 54 1011.3
20260505014516 17 135 0.0 0.0 0.00 0.00 0.00 53 1011.2
20260505013013 17 135 0.0 0.0 0.00 0.00 0.00 52 1010.9
20260505011518 18 135 1.6 4.8 0.00 0.00 0.00 50 1011.0
20260505010012 18 135 1.6 6.4 0.00 0.00 0.00 49 1010.7
20260505004523 19 111 3.2 9.7 0.00 0.00 0.00 48 1010.6
20260505003011 19 135 6.4 12.9 0.00 0.00 0.00 47 1010.6
20260505001510 20 132 3.2 11.3 0.00 0.00 0.00 46 1010.6
20260505000014 20 157 8.0 14.5 0.00 0.00 0.00 44 1010.5
20260504234510 21 140 6.4 22.5 0.00 0.00 0.00 39 1010.3
20260504233008 22 184 6.4 20.9 0.00 0.00 0.00 39 1010.3
20260504231521 22 219 8.0 27.4 0.00 0.00 0.00 38 1010.3
20260504230010 22 159 12.9 22.5 0.00 0.00 0.00 37 1010.4
20260504224506 22 202 12.9 24.1 0.00 0.00 0.00 37 1010.2
20260504223006 22 171 11.3 24.1 0.00 0.00 0.00 36 1010.3
20260504221505 22 236 14.5 24.1 0.00 0.00 0.00 36 1010.2
20260504220005 22 144 11.3 35.4 0.00 0.00 0.00 36 1010.2
20260504214506 22 157 8.0 25.7 0.00 0.00 0.00 37 1010.3
20260504213006 22 175 8.0 24.1 0.00 0.00 0.00 37 1010.3
20260504211502 22 117 16.1 29.0 0.00 0.00 0.00 37 1010.3
20260504210001 22 203 9.7 17.7 0.00 0.00 0.00 37 1010.4
20260504204638 22 225 20.9 32.2 0.00 0.00 0.00 36 1010.4
20260504203056 22 238 16.1 25.7 0.00 0.00 0.00 37 1010.7
20260504201554 22 249 16.1 29.0 0.00 0.00 0.00 37 1010.9
20260504200056 21 198 8.0 25.7 0.00 0.00 0.00 38 1011.1
20260504194553 21 190 17.7 27.4 0.00 0.00 0.00 38 1011.3
20260504193047 21 207 8.0 27.4 0.00 0.00 0.00 39 1011.6
20260504191546 21 188 19.3 35.4 0.00 0.00 0.00 37 1011.9
20260504190053 21 182 20.9 35.4 0.00 0.00 0.00 37 1012.2
20260504184553 21 190 11.3 27.4 0.00 0.00 0.00 38 1012.4
20260504183039 21 249 17.7 27.4 0.00 0.00 0.00 36 1012.6
20260504181538 20 202 11.3 19.3 0.00 0.00 0.00 37 1012.6
20260504180034 20 257 11.3 19.3 0.00 0.00 0.00 38 1012.8
20260504174531 20 240 16.1 30.6 0.00 0.00 0.00 36 1013.0
20260504173028 20 213 8.0 22.5 0.00 0.00 0.00 39 1013.2
20260504171538 19 259 16.1 24.1 0.00 0.00 0.00 38 1013.4